Regional Weather Roundup
Issued by NWS

Home | Current Version | Previous Version | Graphics & Text | Print | Product List | Glossary On
Versions: 1 2 3 4 5 6 7 8 9 10 11 12 13 14 15 16 17 18 19 20 21 22 23 24 25 26 27 28 29 30 31 32 33 34 35 36 37 38 39 40 41 42 43 44 45 46 47 48 49 50
098
ASUS43 KMPX 230301
RWRMN
WEATHER ROUNDUP FOR MINNESOTA
NATIONAL WEATHER SERVICE TWIN CITIES/CHANHASSEN MN
1000 PM CDT TUE MAY 22 2018


NOTE: "FAIR" INDICATES FEW OR NO CLOUDS BELOW 12,000 FEET WITH NO
SIGNIFICANT WEATHER AND/OR OBSTRUCTIONS TO VISIBILITY. N/A MEANS
CURRENT SKY AND/OR WEATHER CONDITIONS ARE NOT AVAILABLE.

MNZ060>063-068>070-230400-
   Twin Cities Metro

CITY           SKY/WX    TMP DP  RH WIND       PRES   REMARKS
TWIN CITIES    FAIR      70  58  65 SE10      30.04R
ST PAUL        FAIR      66  56  70 SE6       30.04R
CRYSTAL        FAIR      68  56  65 E5        30.03R
BLAINE         FAIR      66  55  68 E5        30.04R
LAKEVILLE      FAIR      63  57  82 E6        30.04R
EDEN PRAIRIE   FAIR      68  56  65 E8        30.02R
SOUTH ST PAUL  FAIR      67  56  67 CALM      30.04R
LAKE ELMO      FAIR      61  55  82 E5        30.05S
$$
MNZ001>005-007-008-013>017-022>024-027-028-230400-
   Northwest Minnesota

CITY           SKY/WX    TMP DP  RH WIND       PRES   REMARKS
BEMIDJI        FAIR      63  54  73 SE7       30.03R
HALLOCK        FAIR      72  54  53 SE8       29.97R
ROSEAU         FAIR      70  55  60 E6        30.01R
WARROAD        FAIR      64  54  68 CALM      30.02R
THIEF RVR FALL FAIR      68  54  60 E6        30.01R
CROOKSTON      FAIR      70  54  56 SE8       29.99R
FOSSTON        FAIR      63  45  51 CALM      30.02R
DETROIT LAKES  FAIR      68  54  60 SE8       30.03R
MOORHEAD       FAIR      72  55  56 E8        29.98R
PARK RAPIDS    FAIR      68  55  63 SE7       30.03R
MAHNOMEN       FAIR      68  55  62 SE5       30.00R
$$
MNZ006-009>011-018-025>026-230400-
   North Central Minnesota

CITY           SKY/WX    TMP DP  RH WIND       PRES   REMARKS
BAUDETTE       FAIR      65  52  62 CALM      30.02R
FLAG ISLAND    FAIR      64  52  63 CALM      30.00R
INTL FALLS     FAIR      55  49  80 CALM      30.01R
WASKISH          N/A     61  55  82 CALM      30.03R
BIG FORK       FAIR      61  54  77 CALM      30.04R
LONGVILLE      FAIR      57  54  88 CALM      30.05R
GRAND RAPIDS   FAIR      64  55  72 S5        30.07R
CRANE LAKE     FAIR      54  48  82 CALM      30.04R
ORR            FAIR      64  50  59 CALM      30.02R HAZE
COOK           FAIR      64  54  68 CALM      30.03R
$$
MNZ012-019>021-037-230400-
   Northeast Minnesota

CITY           SKY/WX    TMP DP  RH WIND       PRES   REMARKS
DULUTH         FAIR      64  53  67 W7        30.05R
ELY            FAIR      61  46  59 CALM      30.03R
HIBBING        FAIR      60  52  74 CALM      30.04R
EVELETH        FAIR      61  54  77 CALM      30.05R
DULUTH HARBOR  FAIR      66  57  72 SW7       30.04R
TWO HARBORS    FAIR      66  57  72 W5        30.02R
SILVER BAY     FAIR      61  54  77 CALM      30.02R
GRAND MARAIS     N/A     42  37  82 SW9       30.02R
G MARAIS ARPRT FAIR      61  46  59 CALM      30.06S
$$
MNZ029>031-032-039>041-046>048-054>057-064-230400-
   West Central Minnesota

CITY           SKY/WX    TMP DP  RH WIND       PRES   REMARKS
FERGUS FALLS   FAIR      72  55  56 SE12      29.95R
WHEATON        CLOUDY    72  54  53 E12       29.99R
MORRIS         MOCLDY    70  55  60 E14       29.99R
ALEXANDRIA     FAIR      68  55  63 E8        30.04R
ELBOW LAKE     FAIR      68  56  66 SE13      30.00R
WADENA         FAIR      63  54  72 SE6       30.03R
GLENWOOD       FAIR      64  55  72 E7        30.03R
APPLETON       CLOUDY    73  55  53 SE9       29.97R
BENSON         CLOUDY    70  57  64 SE6       30.01R
ORTONVILLE     CLOUDY    72  55  56 E9        29.97R
MADISON        CLOUDY    73  57  56 E12       29.97R
WILLMAR        FAIR      70  57  64 E8        30.03R
$$
MNZ033>034-036-042>043-049>051-058-059-230400-
   Central Minnesota

CITY           SKY/WX    TMP DP  RH WIND       PRES   REMARKS
ST CLOUD       FAIR      62  56  80 E6        30.03R
SAUK CENTRE    FAIR      64  56  74 E7        30.04R
PAYNESVILLE    FAIR      67  59  76 E3        30.04R
PINE RIVER     FAIR      55  52  88 CALM      30.08R
BRAINERD       FAIR      64  54  69 CALM      30.05R
STAPLES        FAIR      63  54  72 CALM      30.05R
LONG PRAIRIE   FAIR      61  54  77 NE6       30.05R
LITTLE FALLS   FAIR      59  55  88 CALM      30.05R
LITCHFIELD     FAIR      66  61  82 E5        30.03R
BUFFALO        FAIR      64  54  69 E3        30.04R
MAPLE LAKE     FAIR      62  57  83 CALM      30.04R
HUTCHINSON     FAIR      68  58  71 E7        30.03R
$$
MNZ037-044-045-052-053-230400-
   East Central Minnesota

CITY           SKY/WX    TMP DP  RH WIND       PRES   REMARKS
PRINCETON      FAIR      64  57  77 E3        30.05R
MORA           FAIR      57  54  88 CALM      30.07R
CAMBRIDGE      FAIR      64  54  68 CALM      30.05R
RUSH CITY      FAIR      58  55  92 CALM      30.05R
MOOSE LAKE     MOCLDY    57  54  88 CALM      30.04R
HINCKLEY       FAIR      57  55  94 CALM      30.06R
CLOQUET        FAIR      64  52  63 SW3       30.06R
MCGREGOR       FAIR      61  54  77 CALM      30.06R
$$
MNZ071>073-080-081-089-090-097-098-230400-
   Southwest Minnesota

CITY           SKY/WX    TMP DP  RH WIND       PRES   REMARKS
MONTEVIDEO     CLOUDY    70  57  64 SE8       29.99R
GRANITE FALLS  CLOUDY    72  59  63 E5        30.00R
CANBY          CLOUDY    73  58  59 SE8       29.98R
MARSHALL       CLEAR     73  60  63 SE8       29.98R
REDWOOD FALLS  CLOUDY    70  58  65 E7        29.98R
OLIVIA         CLOUDY    72  57  60 E7        30.00R
PIPESTONE      CLOUDY    72  61  68 SE7       29.99R
WINDOM         PTCLDY    72  52  49 E6        30.00R
WORTHINGTON    CLOUDY    68  62  81 SE6       30.01R
JACKSON        CLOUDY    70  61  73 SE7       30.01R
TRACY          PTCLDY    71  63  74 SE6       29.99R
SLAYTON        CLOUDY    71  61  70 E8        29.99S
$$
MNZ065>067-074>077-082>085-091>093-230400-
   South Central Minnesota

CITY           SKY/WX    TMP DP  RH WIND       PRES   REMARKS
MANKATO        FAIR      70  58  65 E13       30.02R
NEW ULM        CLEAR     72  55  56 E8        30.00R
ST JAMES       MOCLDY    72  57  60 SE6       30.01R
FAIRMONT       CLOUDY    72  61  68 SE9       30.01R
GLENCOE        FAIR      69  57  66 E6        30.02R
FARIBAULT      FAIR      68  59  73 CALM      30.04R
OWATONNA       FAIR      66  59  77 E12       30.04R
WASECA         FAIR      64  55  72 E12       30.04R
ALBERT LEA     FAIR      68  55  64 E8        30.04R
$$
MNZ078>079-086>088-094>096-230400-
   Southeast Minnesota

CITY           SKY/WX    TMP DP  RH WIND       PRES   REMARKS
ROCHESTER      FAIR      61  58  90 E9        30.07R
RED WING       FAIR      63  54  72 E3        30.05R
STANTON        FAIR      67  58  74 SE8       30.03R
DODGE CENTER   FAIR      64  57  77 E9        30.06R
WINONA         FAIR      59  55  88 CALM      30.06R
AUSTIN         FAIR      66  59  77 E10       30.05R
PRESTON        FAIR      61  56  85 E8        30.08R
$$
ABBREVIATIONS USED IN REMARKS
   TC - TEMPERATURES IN CELSIUS
  WCI - WIND CHILL INDEX
   HX - HEAT INDEX
  VSB - VISIBILITY
$$




USA.gov is the U.S. government's official web portal to all federal, state and local government web resources and services.